Location: Oshawa
(43.9000°N, 78.8670°W)
Time: 10:05:40
(UTC-04:00)

Daily predictions for brighter satellites

Satellite Brightness Start Highest point End
(mag) Time Altitude Azimuth Time Altitude Azimuth Time Altitude Azimuth
Cosmos 389 Rocket 2.9 19:36:33 10° SSE 19:39:52 40° E 19:43:11 10° NNE
Cosmos 371 Rocket 3.4 19:35:38 10° S 19:40:23 57° ESE 19:45:12 10° NNE
Meteor 1-15 Rocket 4.3 19:35:05 10° S 19:40:57 74° E 19:46:46 10° NNE
EP 1 4.2 19:40:05 10° SW 19:42:44 90° WNW 19:45:20 10° NE
Cosmos 1707 3.3 19:40:26 10° N 19:44:08 37° ENE 19:47:48 10° SE
Cosmos 2369 Rocket 2.7 19:40:17 10° NNW 19:45:54 66° WSW 19:51:27 10° SSE
FENGYUN 3A 3.6 19:41:24 10° SSE 19:46:44 79° ENE 19:52:08 10° N
Cosmos 1656 Rocket 4.3 19:42:33 10° NNW 19:47:48 37° NE 19:52:58 10° ESE
Cosmos 1825 Rocket 3.5 19:45:47 10° N 19:50:13 78° E 19:54:39 10° SSE
Cosmos 2298 Rocket 4.1 19:45:19 10° NNW 19:50:37 61° ENE 19:55:53 10° SSE
Cosmos 468 Rocket 4.0 19:48:50 10° S 19:54:00 72° ESE 19:59:16 10° NNE
USA 229 DEB 3.9 19:46:51 10° NW 19:54:04 88° NE 20:01:25 10° SE
USA 229 3.9 19:46:58 10° NW 19:54:09 87° NE 20:01:30 10° SE
Cosmos 1937 Rocket 3.6 19:49:10 10° NNW 19:54:28 64° ENE 19:59:42 10° SSE
Cosmos 841 Rocket 4.2 19:50:52 10° SSE 19:55:20 31° E 19:59:50 10° NE
Cosmos 2181 Rocket 4.0 19:50:59 10° N 19:57:13 71° E 20:03:19 10° SSE
Cosmos 1340 Rocket 2.8 19:53:32 10° N 19:57:37 74° E 20:01:41 10° SSE
NOSS 3-1 (A) 4.4 19:51:12 10° NNW 19:58:20 47° NE 20:06:04 11° ESE
Cosmos 1271 Rocket 2.9 20:00:14 10° SSW 20:03:59 76° W 20:07:49 10° N
NOSS 3-1 (C) 4.1 20:01:26 10° NNW 20:08:52 64° NE 20:17:10 10° SE
Cosmos 1943 4.0 20:04:18 10° SW 20:09:52 56° WNW 20:15:30 10° NNE
Cosmos 1356 Rocket 3.9 20:07:35 10° N 20:11:41 42° ENE 20:15:47 10° SSE
HJ-1C 3.3 20:09:04 10° SSE 20:12:23 65° ENE 20:15:44 10° N
OPS 8737 4.4 20:09:40 10° SSW 20:13:23 66° SE 20:16:43 10° NE
Cosmos 1378 3.1 20:11:18 10° N 20:15:06 80° E 20:18:52 10° S
SL-08 ROCKET BODY 4.3 20:09:22 10° S 20:15:10 69° E 20:21:06 10° NNE
Cosmos 1763 Rocket 3.4 20:12:14 10° S 20:17:15 65° ESE 20:22:23 10° NNE
Cosmos 2074 Rocket 4.1 20:12:03 10° SSE 20:18:00 51° E 20:24:00 10° NNE
Thor Agena Rocket 3.8 20:12:50 10° N 20:18:07 75° WNW 20:23:18 10° SSW
CZ-2D R/B 3.4 20:17:09 10° SSE 20:20:50 49° ENE 20:24:32 10° N
Cosmos 1758 Rocket 4.1 20:17:18 10° NNW 20:21:46 64° W 20:26:12 10° S
Cosmos 540 Rocket 4.2 20:19:35 10° SSE 20:23:53 28° E 20:28:11 10° NE
Cosmos 1544 3.8 20:23:42 12° SSE 20:26:29 30° E 20:29:41 10° NNE
Resurs 1-3 3.9 20:24:24 13° SE 20:28:04 47° ENE 20:32:17 10° N
Meteor 1-24 Rocket 3.9 20:22:25 10° N 20:28:22 62° ENE 20:34:09 10° SSE
SJ-6B 3.1 20:24:49 10° S 20:28:51 71° W 20:32:49 10° NNW
Cosmos 1726 Rocket 4.1 20:25:56 10° SSW 20:30:15 61° W 20:34:34 10° N
Cosmos 304 Rocket 3.7 20:26:35 10° S 20:31:16 59° ESE 20:36:00 10° NNE
Spot 2 Rocket 3.5 20:35:49 14° SSE 20:40:05 61° ENE 20:45:04 10° N
GEOS 3 Rocket 4.2 20:37:00 10° NE 20:41:56 35° ESE 20:46:49 10° S
Nadezhda 3 Rocket 4.3 20:37:34 10° N 20:43:37 45° ENE 20:47:19 22° SE
Resurs 01 Rocket 1.5 20:40:30 14° SSE 20:44:21 76° ENE 20:48:46 10° N
USA 186 2.0 20:51:12 41° N 20:51:12 41° N 20:52:57 10° N
Cosmos 1943 Rocket 3.8 20:45:51 10° NW 20:50:46 33° WSW 20:55:42 10° SSW
GP-B 3.1 20:47:23 10° N 20:51:46 55° E 20:54:02 27° SSE
FALCON 9 R/B 3.0 20:48:59 10° SW 20:52:11 30° SSE 20:53:49 26° SE
Cosmos 2184 Rocket 4.0 20:45:57 10° S 20:52:14 89° ESE 20:58:39 10° N
Cosmos 1980 Rocket 4.4 20:57:15 10° NNE 20:58:12 10° NE 20:59:11 10° NE
MOS 1-B Rocket 3.9 20:52:10 11° SSE 20:58:24 82° ENE 21:04:08 10° NNW
Cosmos 1697 Rocket 4.5 20:55:19 10° N 20:58:43 16° NE 20:59:34 15° NE
Cosmos 1610 Rocket 4.4 20:54:31 10° S 21:00:51 75° E 21:07:15 10° N
Cosmos 2084 3.5 20:57:00 10° SW 21:01:03 68° NW 21:04:21 14° NNE
Cosmos 1125 Rocket 3.5 20:55:46 10° NNW 21:01:03 67° ENE 21:03:08 37° SE
Cosmos 1356 3.9 20:57:45 10° N 21:00:37 45° NE 21:00:37 45° NE
Meteor 1-22 Rocket 4.3 21:00:57 10° SSW 21:06:43 77° W 21:12:16 10° N
Cosmos 1812 Rocket 3.4 21:04:33 23° S 21:07:15 71° E 21:11:43 10° NNE
H-2A R/B 3.9 21:11:13 15° NE 21:11:13 15° NE 21:13:09 10° NNE
ERS-1 Rocket 4.0 21:11:31 29° NE 21:11:31 29° NE 21:15:22 10° N
Envisat 3.1 21:08:43 21° S 21:12:11 77° WSW 21:17:17 10° NNW
BREEZE-M DEB (TANK) 4.3 21:07:53 10° WNW 21:12:16 61° NNE 21:20:11 25° E
Cosmos 1766 3.9 21:09:33 10° SSW 21:13:25 55° W 21:17:17 10° N
Elektron 1 4.4 21:15:00 10° NW 21:17:38 53° NW 21:17:38 53° NW
Cosmos 1939 Rocket 2.6 21:18:19 89° SE 21:18:20 90° ENE 21:22:16 10° NNW
Meteor 1-21 Rocket 4.3 21:12:40 10° N 21:18:24 59° ENE 21:19:25 51° ESE
Cosmos 372 Rocket 3.9 21:14:28 10° NNW 21:19:46 85° ENE 21:21:07 51° SSE
COSMOS 2406 3.2 21:14:10 10° SSW 21:19:52 87° WNW 21:25:40 10° NNE
Okean 3 Rocket 4.2 21:17:47 10° N 21:21:15 42° NE 21:21:15 42° NE
NOAA 11 4.3 21:28:20 53° ENE 21:28:26 53° ENE 21:33:43 10° N
Meteor 2-19 Rocket 4.5 21:23:00 10° SSW 21:29:02 78° W 21:35:07 10° N
ARGOS 3.9 21:38:32 38° NE 21:38:32 38° NE 21:42:42 10° N
Cosmos 2369 4.2 21:32:13 10° NNW 21:37:20 45° NE 21:37:20 45° NE
Cosmos 1809 Rocket 4.5 21:38:26 57° ENE 21:38:26 57° ENE 21:44:02 10° NNE
Cosmos 962 Rocket 4.4 21:35:23 30° S 21:38:43 83° E 21:45:08 10° N
ATLAS 2AS CENTAUR R/B 3.5 21:32:56 10° NNW 21:40:38 45° NE 21:42:18 40° ENE
MetOp-A 4.5 21:46:17 51° NE 21:46:17 51° NE 21:50:43 10° N
Cosmos 1674 4.3 21:44:50 10° NNW 21:47:00 32° NNW 21:47:00 32° NNW
Helios 1A 4.2 21:57:34 39° NNW 21:57:34 39° NNW 22:00:18 10° NNW
Meteor 2-15 4.3 21:53:56 10° N 21:59:45 80° NE 21:59:45 80° NE
Cosmos 2341 Rocket 4.2 22:01:46 34° SSW 22:04:31 66° W 22:10:43 10° N
Cosmos 1953 4.4 22:08:07 24° NNW 22:08:07 24° NNW 22:10:01 10° N
USA 267 4.3 22:11:15 30° NE 22:12:48 34° NNE 22:18:31 10° NW
Cosmos 2278 4.1 22:07:55 10° NNW 22:12:26 57° NNW 22:12:26 57° NNW
Cosmos 2322 Rocket 4.4 22:26:49 10° N 22:28:46 15° NNE 22:28:46 15° NNE
Terra 4.3 22:37:06 15° N 22:37:06 15° N 22:38:01 10° N
Cosmos 1697 Rocket 3.9 22:37:55 10° NNW 22:41:18 37° NNW 22:41:18 37° NNW
Cosmos 1980 Rocket 3.7 22:38:11 10° NNW 22:41:06 29° N 22:41:06 29° N
H-2A R/B 3.9 22:51:51 26° NNW 22:51:51 26° NNW 22:54:00 10° NNW
SL-16 R/B 4.3 23:01:18 10° N 23:03:20 19° N 23:03:20 19° N
ATLAS 2AS CENTAUR R/B 3.9 23:24:11 10° NW 23:29:43 42° WNW 23:29:43 42° WNW
